Timestamp[UTC];2m Lufttemperatur [degC] (tas);Stations-Luftdruck [Pa] (ps);relative Luftfeuchtigkeit [%] (hurs);spezifische Luftfeuchtigkeit [kg/kg] (huss);Niederschlagsmenge [mm] (pr);Windgeschwindigkeit in 2m [m/s] (sfcWind);Windrichtung [deg];maximale Windgeschwindigkeit [m/s] (wsgsmax);u-Windkomponente [m/s] (uas);v-Windkomponente [m/s] (vas);Sonneneinstrahlung [W/m2];Blitzrate [n];Blitzentfernung [km];Bodenfeuchte in 5cm Tiefe [vol%];Bodenfeuchte in 15cm Tiefe [vol%];Bodenfeuchte in 30cm Tiefe [vol%];Bodenfeuchte in 60cm Tiefe [vol%];Bodentemperatur in 5cm Tiefe [degC];Bodentemperatur in 15cm Tiefe [degC];Bodentemperatur in 30cm Tiefe [degC];Bodentemperatur in 60cm Tiefe [degC];Matrixpotential in 30cm Tiefe [kPa];Bodenfeuchte aus CRNS [vol%] (mrso);Neutronen Anzahl [N/h]
2022-04-01 00:00:00;1,6;99738;91;0,0039;0,27;1,5;43;4,9;1,11;1,04;0;0;0;19,9;32,0;35,9;39,0;5,7;6,5;7,3;8,1;-12,6;23,8;1669
2022-04-01 01:00:00;1,3;99783;90;0,0038;0,32;1,7;42;4,8;1,26;1,15;0;0;0;20,7;32,0;35,9;39,0;5,7;6,5;7,3;8,1;-12,6;24,0;1684
2022-04-01 02:00:00;1,1;99807;89;0,0037;0,17;2,0;42;5,9;1,41;1,34;0;0;0;21,4;32,0;35,9;39,0;5,7;6,4;7,2;8,0;-12,5;24,3;1671
2022-04-01 03:00:00;0,9;99875;90;0,0036;0,06;1,5;33;4,4;1,25;0,82;0;0;0;22,0;32,0;35,9;39,0;5,6;6,3;7,1;8,0;-12,5;24,4;1637
2022-04-01 04:00:00;0,8;99935;88;0,0036;0,06;1,9;35;5,8;1,52;1,07;0;0;0;22,5;32,0;35,9;39,0;5,5;6,3;7,1;8,0;-12,5;24,4;1645
2022-04-01 05:00:00;0,8;100010;88;0,0035;0,02;1,8;29;5,8;1,53;0,88;2;0;0;22,9;32,0;35,9;38,9;5,5;6,2;7,0;8,0;-12,4;24,6;1596
2022-04-01 06:00:00;0,8;100095;87;0,0035;0,02;1,9;28;5,4;1,67;0,92;18;0;0;23,2;32,0;35,9;38,9;5,4;6,1;6,9;7,9;-12,4;24,6;1628
2022-04-01 07:00:00;0,8;100170;85;0,0034;0,0;1,9;24;4,6;1,73;0,8;32;0;0;23,3;32,1;36,0;38,9;5,4;6,1;6,9;7,9;-12,4;25,0;1599
2022-04-01 08:00:00;0,9;100250;83;0,0034;0,0;2,1;28;5,8;1,82;1,01;32;0;0;23,5;32,1;36,0;38,9;5,3;6,0;6,8;7,9;-12,4;24,9;1595
2022-04-01 09:00:00;1,0;100328;82;0,0034;0,0;1,9;21;6,1;1,78;0,7;42;0;0;23,6;32,1;36,0;38,9;5,3;6,0;6,7;7,8;-12,3;24,9;1602
2022-04-01 10:00:00;1,1;100367;81;0,0033;0,0;2,0;25;6,3;1,85;0,86;67;0;0;23,7;32,1;36,0;38,9;5,3;5,9;6,7;7,8;-12,3;25,1;1619
2022-04-01 11:00:00;1,3;100387;80;0,0033;0,0;2,0;20;6,1;1,86;0,72;66;0;0;23,7;32,2;36,0;38,9;5,3;5,9;6,6;7,8;-12,3;25,2;1651
2022-04-01 12:00:00;1,4;100425;78;0,0033;0,0;1,9;33;5,4;1,58;1,04;54;0;0;23,8;32,2;36,0;38,9;5,3;5,9;6,6;7,7;-12,2;25,2;1562
2022-04-01 13:00:00;1,6;100475;77;0,0033;0,0;2,4;38;6,1;1,84;1,48;72;0;0;23,8;32,3;36,1;38,9;5,3;5,9;6,6;7,7;-12,2;25,2;1513
2022-04-01 14:00:00;2,2;100490;75;0,0033;0,0;2,4;31;6,2;2,0;1,27;138;0;0;23,8;32,3;36,1;38,9;5,3;5,8;6,5;7,7;-12,2;25,4;1632
2022-04-01 15:00:00;1,7;100558;84;0,0036;0,38;1,5;95;4,5;1,47;0,17;62;0;0;23,8;32,3;36,1;38,9;5,4;5,8;6,5;7,7;-12,2;25,6;1591
2022-04-01 16:00:00;1,0;100648;90;0,0036;0,61;2,1;350;5,5;2,09;-0,37;39;0;0;23,9;32,4;36,1;38,9;5,3;5,8;6,5;7,6;-12,1;25,7;1539
2022-04-01 17:00:00;1,2;100702;90;0,0037;0,58;2,7;353;6,6;2,69;-0,32;13;0;0;24,0;32,4;36,1;38,9;5,2;5,8;6,4;7,6;-12,1;25,8;1590
2022-04-01 18:00:00;1,0;100770;90;0,0037;0,39;2,9;353;6,3;2,9;-0,33;0;0;0;24,2;32,5;36,1;38,9;5,1;5,8;6,4;7,6;-12,1;25,8;1488
2022-04-01 19:00:00;1,0;100838;90;0,0036;0,12;3,0;352;7,2;2,94;-0,37;0;0;0;24,5;32,5;36,2;38,9;5,0;5,7;6,4;7,5;-12,0;25,9;1560
2022-04-01 20:00:00;0,8;100877;90;0,0036;0,12;2,9;354;7,3;2,9;-0,28;0;0;0;24,8;32,6;36,2;38,9;4,9;5,6;6,3;7,5;-12,0;25,9;1509
2022-04-01 21:00:00;0,7;100905;90;0,0036;0,16;2,4;350;6,1;2,36;-0,39;0;0;0;25,0;32,6;36,2;38,9;4,7;5,5;6,3;7,5;-12,0;26,0;1517
2022-04-01 22:00:00;0,6;100940;91;0,0036;0,1;2,3;350;6,2;2,28;-0,36;0;0;0;25,2;32,7;36,2;38,9;4,7;5,4;6,2;7,4;-12,0;25,9;1472
2022-04-01 23:00:00;0,6;100955;90;0,0035;0,04;2,7;352;6,9;2,68;-0,33;0;0;0;25,4;32,7;36,2;38,9;4,6;5,4;6,1;7,4;-11,9;26,1;1435
2022-04-02 00:00:00;0,7;100962;89;0,0035;0,0;3,1;353;6,7;3,13;-0,37;0;0;0;25,5;32,8;36,2;38,9;4,5;5,3;6,1;7,4;-11,9;26,4;1555
2022-04-02 01:00:00;0,6;100978;88;0,0034;0,0;3,5;356;7,8;3,53;-0,25;0;0;0;25,6;32,9;36,3;39,3;4,4;5,2;6,0;7,4;-11,9;26,5;1475
2022-04-02 02:00:00;0,6;100982;85;0,0034;0,0;2,9;352;5,7;2,82;-0,37;0;0;0;25,7;32,9;36,3;39,3;4,3;5,1;6,0;7,3;-11,8;26,4;1457
2022-04-02 03:00:00;1,0;100998;79;0,0032;0,0;2,0;352;5,3;2,02;-0,28;0;0;0;25,7;33,0;36,3;38,9;4,3;5,1;5,9;7,3;-11,8;26,5;1456
2022-04-02 04:00:00;1,2;101030;72;0,003;0,0;1,4;13;4,3;1,37;0,34;0;0;0;25,7;33,1;36,3;38,9;4,2;5,0;5,9;7,3;-11,8;26,6;1497
2022-04-02 05:00:00;1,0;101077;70;0,0029;0,0;1,2;181;3,3;1,21;0,03;6;0;0;25,7;33,1;36,3;39,3;4,2;4,9;5,8;7,3;-11,8;26,5;1467
2022-04-02 06:00:00;1,3;101142;70;0,0029;0,0;1,5;19;4,8;1,38;0,49;60;0;0;25,7;33,2;36,4;38,9;4,2;4,9;5,8;7,2;-11,7;26,8;1471
2022-04-02 07:00:00;1,8;101195;69;0,003;0,0;1,5;11;4,4;1,45;0,3;130;0;0;25,7;33,2;36,4;38,9;4,2;4,8;5,7;7,2;-11,7;26,4;1499
2022-04-02 08:00:00;2,6;101238;68;0,003;0,0;1,9;21;6,2;1,78;0,72;212;0;0;25,7;33,3;36,4;38,9;4,3;4,9;5,7;7,2;-11,7;26,4;1458
2022-04-02 09:00:00;3,0;101290;68;0,0031;0,0;2,1;20;6,2;1,92;0,71;250;0;0;25,7;33,3;36,4;38,9;4,5;4,9;5,6;7,1;-11,6;26,5;1503
2022-04-02 10:00:00;3,3;101333;67;0,0032;0,0;1,8;32;5,1;1,54;0,94;247;0;0;25,6;33,4;36,4;38,9;4,8;5,0;5,6;7,1;-11,6;26,4;1424
2022-04-02 11:00:00;3,4;101355;67;0,0032;0,0;1,8;34;5,8;1,41;0,9;210;0;0;25,6;33,4;36,4;38,9;5,0;5,1;5,7;7,1;-11,6;26,4;1428
2022-04-02 12:00:00;4,2;101360;66;0,0034;0,0;1,6;52;5,1;0,95;1,2;350;0;0;25,5;33,4;36,4;38,9;5,3;5,2;5,7;7,0;-11,6;26,4;1405
2022-04-02 13:00:00;5,0;101345;67;0,0036;0,0;1,5;71;4,9;0,48;1,45;274;0;0;25,5;33,5;36,5;38,9;5,6;5,4;5,8;7,0;-11,6;26,3;1448
2022-04-02 14:00:00;5,9;101318;58;0,0033;0,0;1,8;46;5,0;1,05;1,24;277;0;0;25,4;33,5;36,5;38,9;5,9;5,6;5,9;7,0;-11,5;26,0;1472
2022-04-02 15:00:00;5,5;101363;54;0,003;0,0;1,8;240;5,7;1,79;0,0;152;0;0;25,4;33,5;36,5;38,9;6,2;5,8;6,0;7,0;-11,5;25,7;1458
2022-04-02 16:00:00;5,4;101408;55;0,003;0,0;1,9;353;5,4;1,92;-0,24;123;0;0;25,3;33,5;36,5;38,9;6,2;6,0;6,1;7,0;-11,5;25,6;1469
2022-04-02 17:00:00;4,7;101465;58;0,0031;0,0;1,7;265;4,8;1,66;-0,15;30;0;0;25,3;33,5;36,5;38,9;6,1;6,1;6,2;6,9;-11,5;25,6;1400
2022-04-02 18:00:00;3,9;101545;64;0,0032;0,0;1,9;353;4,5;1,9;-0,22;3;0;0;25,2;33,5;36,5;38,9;6,0;6,1;6,2;6,9;-11,5;25,4;1553
2022-04-02 19:00:00;2,9;101623;67;0,0031;0,0;1,5;350;3,1;1,49;-0,24;0;0;0;25,2;33,6;36,5;38,9;5,7;6,1;6,3;6,9;-11,5;25,3;1470
2022-04-02 20:00:00;1,7;101688;73;0,0031;0,0;1,3;342;2,7;1,25;-0,37;0;0;0;25,2;33,6;36,5;38,9;5,5;6,0;6,2;6,9;-11,4;25,2;1404
2022-04-02 21:00:00;1,5;101730;71;0,003;0,0;1,7;350;4,1;1,7;-0,28;0;0;0;25,2;33,6;36,5;38,9;5,3;5,9;6,2;6,9;-11,4;25,1;1454
2022-04-02 22:00:00;0,3;101788;75;0,0029;0,0;1,4;341;2,3;1,3;-0,44;0;0;0;25,2;33,6;36,6;38,9;5,0;5,7;6,1;6,9;-11,4;25,3;1390
2022-04-02 23:00:00;-0,5;101840;76;0,0028;0,0;1,3;331;2,0;1,16;-0,64;0;0;0;25,1;33,6;36,6;38,9;4,8;5,6;6,1;6,9;-11,4;25,2;1349
2022-04-03 00:00:00;-0,4;101845;76;0,0028;0,0;1,2;332;1,8;1,03;-0,52;0;0;0;25,1;33,6;36,6;38,9;4,6;5,4;6,0;6,9;-11,4;25,1;1502
2022-04-03 01:00:00;-0,7;101853;77;0,0027;0,0;1,1;331;1,7;0,98;-0,53;0;0;0;25,1;33,6;36,6;38,9;4,4;5,3;5,9;6,9;-11,4;24,8;1524
2022-04-03 02:00:00;-1,5;101842;80;0,0027;0,0;0,8;327;1,4;0,7;-0,44;0;0;0;25,1;33,7;36,6;38,9;4,3;5,2;5,9;6,9;-11,4;24,8;1455
2022-04-03 03:00:00;-2,2;101858;81;0,0026;0,0;0,4;314;0,7;0,3;-0,27;0;0;0;25,1;33,7;36,6;38,9;4,1;5,0;5,8;6,9;-11,4;24,8;1398
2022-04-03 04:00:00;-2,9;101898;84;0,0025;0,0;0,2;245;0,4;-0,06;-0,12;0;0;0;25,0;33,7;36,6;38,9;3,8;4,9;5,7;6,8;-11,4;24,8;1409
2022-04-03 05:00:00;-2,7;101930;86;0,0026;0,0;0,3;289;0,7;0,08;-0,22;28;0;0;25,0;33,7;36,6;38,9;3,6;4,7;5,6;6,8;-11,4;24,8;1441
2022-04-03 06:00:00;-0,8;101908;92;0,0032;0,0;0,9;316;1,6;0,62;-0,58;167;0;0;25,0;33,7;36,6;38,9;3,4;4,5;5,5;6,8;-11,4;24,5;1407
2022-04-03 07:00:00;1,2;101880;81;0,0033;0,0;1,3;276;2,3;0,16;-1,28;322;0;0;25,0;33,7;36,6;38,9;3,4;4,4;5,4;6,8;-11,4;24,6;1453
2022-04-03 08:00:00;3,4;101900;72;0,0034;0,0;2,1;314;3,9;1,41;-1,51;451;0;0;25,0;33,7;36,6;39,3;3,4;4,3;5,3;6,8;-11,3;24,6;1420
2022-04-03 09:00:00;3,9;101922;65;0,0032;0,0;2,5;315;4,8;1,76;-1,75;270;0;0;25,0;33,7;36,6;38,9;3,6;4,3;5,2;6,8;-11,3;24,2;1375
2022-04-03 10:00:00;5,0;101870;69;0,0037;0,0;1,9;280;4,5;0,28;-1,6;580;0;0;24,9;33,7;36,6;38,9;4,0;4,3;5,2;6,7;-11,3;24,2;1387
2022-04-03 11:00:00;6,1;101817;64;0,0037;0,0;2,1;256;4,7;-0,15;-1,84;552;0;0;24,8;33,7;36,6;38,9;4,5;4,5;5,2;6,7;-11,4;24,1;1428
2022-04-03 12:00:00;6,3;101783;61;0,0036;0,0;3,2;286;5,9;0,95;-3,09;302;0;0;24,8;33,7;36,6;39,3;5,2;4,8;5,3;6,7;-11,4;23,9;1459
2022-04-03 13:00:00;5,9;101765;65;0,0037;0,0;3,4;308;6,2;2,18;-2,44;216;0;0;24,7;33,7;36,6;38,9;5,5;5,1;5,4;6,7;-11,3;24,0;1405
2022-04-03 14:00:00;6,7;101710;66;0,004;0,0;4,5;287;7,2;1,3;-4,27;299;0;0;24,7;33,7;36,6;38,9;5,7;5,3;5,5;6,6;-11,3;24,4;1419
2022-04-03 15:00:00;6,6;101680;66;0,0039;0,0;4,8;288;7,8;1,56;-4,53;153;0;0;24,6;33,7;36,6;38,9;5,9;5,5;5,6;6,6;-11,3;24,3;1456
2022-04-03 16:00:00;4,9;101690;76;0,0041;0,05;3,7;273;7,0;0,6;-3,52;60;0;0;24,6;33,7;36,6;38,9;5,9;5,7;5,7;6,6;-11,3;24,1;1428
2022-04-03 17:00:00;5,4;101668;76;0,0042;0,0;2,0;272;2,9;0,11;-1,94;51;0;0;24,5;33,7;36,6;38,9;5,9;5,7;5,8;6,6;-11,3;24,0;1477
2022-04-03 18:00:00;4,7;101672;76;0,004;0,0;1,6;287;2,4;0,52;-1,53;1;0;0;24,5;33,7;36,6;38,9;5,8;5,8;5,8;6,6;-11,3;24,1;1485
2022-04-03 19:00:00;3,1;101700;79;0,0037;0,0;1,4;274;2,0;0,05;-1,36;0;0;0;24,5;33,7;36,6;38,9;5,7;5,8;5,9;6,6;-11,3;24,2;1449
2022-04-03 20:00:00;3,6;101698;73;0,0035;0,0;2,0;248;2,9;-0,72;-1,86;0;0;0;24,5;33,7;36,6;39,3;5,5;5,8;5,9;6,6;-11,3;24,1;1573
2022-04-03 21:00:00;2,8;101678;74;0,0034;0,0;2,1;250;3,3;-0,68;-1,93;0;0;0;24,5;33,7;36,6;38,9;5,3;5,7;5,9;6,5;-11,3;24,0;1428
2022-04-03 22:00:00;2,4;101650;76;0,0034;0,0;2,2;245;3,3;-0,89;-1,98;0;0;0;24,5;33,7;36,7;38,9;5,1;5,6;5,8;6,5;-11,3;24,0;1455
2022-04-03 23:00:00;2,0;101608;78;0,0034;0,0;2,5;241;3,8;-1,2;-2,22;0;0;0;24,5;33,7;36,7;38,9;4,9;5,4;5,8;6,6;-11,3;23,9;1456
2022-04-04 00:00:00;1,2;101560;82;0,0034;0,0;2,1;220;3,1;-1,54;-1,4;0;0;0;24,5;33,7;36,7;38,9;4,8;5,3;5,7;6,5;-11,3;24,0;1456
2022-04-04 01:00:00;0,9;101490;82;0,0033;0,0;2,5;213;4,0;-2,06;-1,41;0;0;0;24,5;33,7;36,7;38,9;4,6;5,2;5,7;6,5;-11,3;24,1;1409
2022-04-04 02:00:00;1,3;101395;82;0,0034;0,0;3,1;220;5,2;-2,38;-2,04;0;0;0;24,5;33,7;36,7;38,9;4,5;5,1;5,6;6,6;-11,3;24,1;1527
2022-04-04 03:00:00;1,6;101288;80;0,0034;0,0;4,0;222;6,6;-2,99;-2,71;0;0;0;24,4;33,7;36,7;38,9;4,3;5,0;5,6;6,5;-11,3;24,0;1547
2022-04-04 04:00:00;1,7;101188;79;0,0034;0,0;3,8;221;6,6;-2,89;-2,54;0;0;0;24,4;33,7;36,7;38,9;4,3;4,9;5,5;6,5;-11,3;24,1;1559
2022-04-04 05:00:00;2,2;101098;78;0,0034;0,0;4,3;221;6,8;-3,23;-2,79;12;0;0;24,4;33,7;36,7;38,9;4,2;4,8;5,4;6,5;-11,3;24,0;1480
2022-04-04 06:00:00;2,9;100997;79;0,0037;0,0;4,9;213;7,7;-4,05;-2,73;107;0;0;24,4;33,7;36,7;38,9;4,1;4,7;5,3;6,5;-11,3;24,2;1468
2022-04-04 07:00:00;4,3;100875;77;0,0039;0,0;5,6;220;9,3;-4,2;-3,63;146;0;0;24,4;33,7;36,7;38,9;4,1;4,7;5,3;6,5;-11,3;24,4;1580
2022-04-04 08:00:00;5,7;100773;72;0,0041;0,0;7,1;238;12,1;-3,77;-6,04;230;0;0;24,4;33,7;36,7;39,3;4,3;4,7;5,2;6,5;-11,3;24,5;1588
2022-04-04 09:00:00;6,1;100667;69;0,004;0,02;7,7;242;13,4;-3,52;-6,82;188;0;0;24,3;33,7;36,7;38,9;4,5;4,7;5,2;6,5;-11,3;25,0;1496
2022-04-04 10:00:00;5,8;100580;74;0,0043;0,39;8,0;246;14,0;-3,24;-7,3;144;0;0;24,3;33,7;36,6;38,9;4,7;4,8;5,2;6,4;-11,3;25,1;1553
2022-04-04 11:00:00;4,8;100532;86;0,0046;0,8;8,0;242;13,9;-3,69;-7,06;96;0;0;24,3;33,7;36,6;38,9;4,9;4,9;5,3;6,4;-11,3;25,3;1514
2022-04-04 12:00:00;4,8;100465;85;0,0045;0,16;8,5;242;14,7;-3,91;-7,57;113;0;0;24,5;33,7;36,6;38,9;4,9;5,0;5,3;6,4;-11,3;25,6;1556
2022-04-04 13:00:00;4,5;100395;87;0,0045;0,14;8,2;240;14,2;-4,08;-7,14;95;0;0;24,7;33,7;36,6;38,9;5,0;5,1;5,4;6,4;-11,3;25,7;1567
2022-04-04 14:00:00;4,6;100340;88;0,0047;0,04;7,7;239;12,4;-3,88;-6,6;59;0;0;24,9;33,7;36,6;38,9;5,0;5,1;5,4;6,4;-11,3;25,8;1587
2022-04-04 15:00:00;5,0;100292;89;0,0048;0,07;7,6;244;12,7;-3,32;-6,8;45;0;0;25,1;33,7;36,6;38,9;5,1;5,2;5,4;6,4;-11,2;26,1;1567
2022-04-04 16:00:00;5,4;100257;88;0,0049;0,02;7,4;244;12,2;-3,2;-6,68;31;0;0;25,3;33,7;36,6;38,9;5,1;5,2;5,4;6,4;-11,2;26,3;1588
2022-04-04 17:00:00;5,5;100242;90;0,005;0,0;7,1;242;13,7;-3,32;-6,32;11;0;0;25,4;33,8;36,6;39,3;5,1;5,3;5,5;6,4;-11,2;26,6;1547
2022-04-04 18:00:00;5,6;100228;92;0,0052;0,15;6,9;242;12,2;-3,17;-6,09;0;0;0;25,5;33,8;36,7;38,9;5,2;5,3;5,5;6,4;-11,2;26,7;1574
2022-04-04 19:00:00;6,0;100220;92;0,0053;0,18;6,7;241;10,7;-3,16;-5,89;0;0;0;25,6;33,8;36,7;38,9;5,3;5,3;5,5;6,3;-11,2;26,8;1562
2022-04-04 20:00:00;6,5;100193;91;0,0055;0,08;6,5;246;11,1;-2,66;-5,98;0;0;0;25,8;33,9;36,7;38,9;5,3;5,4;5,5;6,3;-11,2;27,0;1499
2022-04-04 21:00:00;7,0;100134;91;0,0057;0,13;6,8;243;12,2;-2,97;-6,11;0;0;0;25,9;33,9;36,7;38,9;5,4;5,4;5,6;6,3;-11,1;27,5;1563
2022-04-04 22:00:00;7,2;100100;93;0,0059;0,5;6,9;246;11,7;-2,72;-6,37;0;0;0;26,1;33,9;36,7;39,3;5,5;5,5;5,6;6,3;-11,1;27,3;1509
2022-04-04 23:00:00;7,8;100090;93;0,0061;1,06;6,5;250;10,8;-2,25;-6,12;0;0;0;26,5;34,0;36,7;38,9;5,6;5,6;5,6;6,3;-11,1;27,6;1477
2022-04-05 00:00:00;8,2;100083;93;0,0063;0,59;6,5;253;10,3;-1,79;-6,22;0;0;0;27,5;34,0;36,7;38,9;5,8;5,7;5,7;6,3;-11,0;27,8;1542
2022-04-05 01:00:00;8,6;100085;94;0,0066;1,04;5,6;258;8,8;-1,18;-5,51;0;0;0;29,1;34,1;36,8;39,7;6,0;5,8;5,8;6,3;-11,0;28,0;1462
2022-04-05 02:00:00;9,0;100090;94;0,0067;1,39;5,1;263;7,6;-0,57;-5,02;0;0;0;31,2;34,2;37,2;39,3;6,2;5,9;5,8;6,3;-10,9;28,2;1534
2022-04-05 03:00:00;9,6;100108;94;0,007;0,74;5,7;280;8,7;1,0;-5,62;0;0;0;33,2;34,4;37,5;39,3;6,3;6,1;5,9;6,3;-10,5;28,3;1533
2022-04-05 04:00:00;9,6;100110;94;0,007;1,05;4,9;279;7,5;0,78;-4,86;0;0;0;34,0;34,8;37,7;38,9;6,5;6,2;6,0;6,3;-9,9;28,5;1488
2022-04-05 05:00:00;9,7;100115;93;0,007;0,75;5,0;274;8,0;0,42;-5,01;8;0;0;34,5;35,4;38,0;38,9;6,7;6,3;6,1;6,3;-9,2;28,8;1515
2022-04-05 06:00:00;9,6;100145;94;0,007;0,41;5,0;273;7,4;0,31;-4,94;28;0;0;34,8;36,0;38,3;39,0;6,8;6,5;6,2;6,3;-8,6;29,0;1492
2022-04-05 07:00:00;9,8;100170;94;0,0071;0,05;5,9;276;9,0;0,74;-5,81;76;0;0;34,7;36,4;38,6;39,0;7,0;6,6;6,3;6,3;-8,2;29,2;1524
2022-04-05 08:00:00;10,3;100202;91;0,0071;0,0;5,7;274;8,7;0,45;-5,63;78;0;0;34,5;36,6;38,9;39,0;7,1;6,7;6,3;6,3;-8,0;29,5;1453
2022-04-05 09:00:00;10,4;100227;90;0,0071;0,17;4,8;274;7,2;0,37;-4,83;84;0;0;34,2;36,6;39,0;39,0;7,3;6,8;6,4;6,4;-7,9;29,7;1568
2022-04-05 10:00:00;10,9;100235;91;0,0074;0,07;5,5;274;9,0;0,55;-5,5;258;0;0;34,1;36,7;39,1;39,1;7,5;7,0;6,5;6,4;-7,9;29,9;1463
2022-04-05 11:00:00;11,8;100215;88;0,0076;0,0;6,0;279;9,0;0,96;-5,94;301;0;0;34,0;36,7;39,2;39,1;7,8;7,1;6,6;6,4;-7,9;29,9;1451
2022-04-05 12:00:00;11,8;100225;87;0,0075;0,18;5,4;278;8,7;0,84;-5,3;268;0;0;33,8;36,7;39,2;39,1;8,1;7,3;6,7;6,4;-7,9;29,9;1466
2022-04-05 13:00:00;11,9;100205;88;0,0076;0,15;4,8;265;7,8;-0,38;-4,73;196;0;0;33,7;36,7;39,2;39,1;8,4;7,6;6,9;6,4;-7,9;30,1;1503
2022-04-05 14:00:00;11,9;100180;84;0,0073;0,0;5,8;264;8,7;-0,54;-5,72;126;0;0;33,6;36,7;39,2;39,1;8,6;7,8;7,0;6,4;-7,9;30,0;1547
2022-04-05 15:00:00;11,2;100195;87;0,0072;0,5;5,6;278;9,2;0,88;-5,5;72;0;0;33,6;36,7;39,2;39,1;8,7;8,0;7,2;6,5;-7,9;30,0;1463
2022-04-05 16:00:00;11,3;100182;86;0,0072;0,0;3,8;260;6,9;-0,58;-3,76;64;0;0;33,7;36,8;39,3;39,1;8,8;8,1;7,3;6,5;-7,9;30,4;1468
2022-04-05 17:00:00;11,2;100163;85;0,0071;0,0;3,0;253;4,7;-0,86;-2,88;17;0;0;33,6;36,8;39,3;39,1;8,8;8,2;7,4;6,5;-7,9;30,3;1490
2022-04-05 18:00:00;10,5;100152;88;0,007;3,87;2,7;274;4,2;0,22;-2,68;1;0;0;34,1;36,8;39,5;39,1;8,7;8,2;7,4;6,6;-7,9;30,3;1517
2022-04-05 19:00:00;9,6;100205;94;0,007;4,91;4,0;280;7,1;0,75;-3,92;0;0;0;38,5;38,9;40,3;39,2;8,8;8,3;7,5;6,6;-7,9;30,3;1424
2022-04-05 20:00:00;10,1;100218;91;0,007;0,22;3,2;258;5,3;-0,68;-3,1;0;0;0;37,4;39,3;40,3;39,6;8,7;8,3;7,6;6,6;-7,9;30,4;1435
2022-04-05 21:00:00;9,4;100198;92;0,0068;0,43;3,8;237;6,0;-2,08;-3,12;0;0;0;37,0;38,9;40,2;39,9;8,7;8,3;7,6;6,7;-7,8;30,2;1477
2022-04-05 22:00:00;9,6;100160;89;0,0066;0,0;3,9;240;6,9;-1,9;-3,36;0;0;0;36,8;38,7;40,2;40,0;8,6;8,3;7,7;6,7;-7,8;30,7;1518
2022-04-05 23:00:00;9,8;100145;85;0,0064;0,0;4,2;242;7,1;-1,99;-3,74;0;0;0;36,5;38,0;40,2;40,2;8,5;8,3;7,7;6,7;-7,8;30,6;1468
2022-04-06 00:00:00;9,6;100110;84;0,0062;0,0;4,1;238;6,7;-2,18;-3,48;0;0;0;36,2;36,7;40,2;40,6;8,4;8,2;7,7;6,8;-7,8;30,6;1492
2022-04-06 01:00:00;9,3;100082;82;0,006;0,0;4,2;236;7,1;-2,37;-3,48;0;0;0;36,0;38,7;40,1;40,2;8,3;8,2;7,7;6,8;-7,8;30,5;1533
2022-04-06 02:00:00;9,3;100050;81;0,0059;0,0;4,7;240;8,4;-2,31;-4,06;0;0;0;35,7;38,3;40,0;40,3;8,2;8,1;7,6;6,8;-7,8;30,4;1545
2022-04-06 03:00:00;9,1;100017;80;0,0058;0,0;4,5;237;8,4;-2,39;-3,8;0;0;0;35,6;37,9;40,0;40,3;8,1;8,0;7,6;6,9;-7,8;30,7;1464
2022-04-06 04:00:00;9,0;99982;77;0,0055;0,0;4,0;238;8,0;-2,06;-3,41;0;0;0;35,4;37,6;40,0;40,3;8,0;8,0;7,6;6,9;-7,8;30,5;1555
2022-04-06 05:00:00;9,0;99962;78;0,0056;0,0;4,8;238;8,4;-2,46;-4,09;8;0;0;35,3;37,5;40,0;40,3;7,9;7,9;7,6;6,9;-7,8;30,4;1553
2022-04-06 06:00:00;8,8;99950;79;0,0056;0,0;4,9;236;9,0;-2,72;-4,13;27;0;0;35,1;37,4;40,0;40,3;7,8;7,8;7,5;7,0;-7,8;30,5;1540
2022-04-06 07:00:00;8,7;99905;81;0,0057;0,0;5,4;235;10,0;-3,06;-4,44;68;0;0;35,0;37,4;40,0;40,3;7,8;7,8;7,5;7,0;-7,8;30,4;1537
2022-04-06 08:00:00;9,1;99860;78;0,0056;0,0;6,0;235;10,0;-3,44;-4,94;149;0;0;34,9;36,9;40,0;40,3;7,8;7,8;7,5;7,0;-7,8;30,2;1601
2022-04-06 09:00:00;9,6;99842;74;0,0055;0,0;6,2;237;11,1;-3,34;-5,22;133;0;0;34,8;37,4;40,0;40,3;7,9;7,8;7,5;7,0;-7,8;30,1;1487
2022-04-06 10:00:00;9,6;99818;74;0,0056;0,0;6,8;232;11,6;-4,12;-5,45;196;0;0;34,6;37,4;40,0;40,3;7,9;7,8;7,5;7,0;-7,8;30,0;1556
2022-04-06 11:00:00;9,8;99785;74;0,0056;0,0;6,0;229;10,9;-3,86;-4,56;108;0;0;34,5;37,4;40,0;40,3;8,0;7,8;7,5;7,0;-7,8;30,0;1536
2022-04-06 12:00:00;10,0;99724;75;0,0057;0,0;5,9;225;10,5;-4,14;-4,1;126;0;0;34,4;37,4;40,0;40,3;8,0;7,8;7,5;7,0;-7,8;30,0;1581
2022-04-06 13:00:00;10,4;99650;75;0,0059;0,0;6,0;220;10,4;-4,57;-3,94;176;0;0;34,3;37,4;40,0;40,3;8,1;7,9;7,5;7,1;-7,8;29,8;1622
2022-04-06 14:00:00;10,8;99552;72;0,0059;0,0;6,1;217;10,4;-4,86;-3,73;144;0;0;34,2;37,4;40,0;40,3;8,2;7,9;7,6;7,1;-7,8;29,9;1578
2022-04-06 15:00:00;10,8;99495;70;0,0057;0,0;6,2;218;10,6;-4,83;-3,85;78;0;0;34,1;37,4;40,0;40,3;8,3;8,0;7,6;7,1;-7,8;30,2;1647
2022-04-06 16:00:00;10,8;99420;71;0,0058;0,0;6,1;211;10,1;-5,25;-3,15;43;0;0;34,0;37,4;40,0;40,3;8,3;8,0;7,6;7,1;-7,7;30,2;1613
2022-04-06 17:00:00;10,5;99382;73;0,0058;0,58;4,4;224;8,8;-3,19;-2,95;12;0;0;33,9;37,4;40,0;40,3;8,3;8,0;7,7;7,1;-7,8;30,2;1589
2022-04-06 18:00:00;9,8;99330;80;0,0061;0,19;3,4;211;6,0;-2,88;-1,74;2;0;0;34,0;37,4;40,0;40,3;8,2;8,1;7,7;7,1;-7,7;30,4;1656
2022-04-06 19:00:00;9,6;99305;82;0,0062;0,34;4,5;207;7,6;-4,04;-2,06;0;0;0;34,3;37,4;40,0;40,3;8,2;8,1;7,7;7,1;-7,7;30,4;1639
2022-04-06 20:00:00;9,9;99253;80;0,0062;0,0;4,7;210;8,1;-4,05;-2,4;0;0;0;34,4;37,5;40,0;40,3;8,1;8,0;7,7;7,2;-7,7;30,4;1608
2022-04-06 21:00:00;9,9;99203;78;0,006;0,0;4,9;218;8,0;-3,8;-3,07;0;0;0;34,3;37,5;40,0;40,3;8,1;8,0;7,7;7,2;-7,7;30,7;1636
2022-04-06 22:00:00;9,8;99138;80;0,0061;0,05;5,0;206;8,1;-4,5;-2,23;0;0;0;34,3;36,9;40,0;40,3;8,0;8,0;7,7;7,2;-7,7;30,5;1675
2022-04-06 23:00:00;9,6;99045;82;0,0062;0,0;5,9;214;9,8;-4,71;-3,35;0;0;0;34,2;37,5;40,0;40,3;8,0;8,0;7,7;7,2;-7,7;30,4;1597
2022-04-07 00:00:00;9,6;98970;80;0,006;0,0;6,2;229;11,0;-4,01;-4,68;0;0;0;34,1;36,9;40,0;40,3;8,0;7,9;7,6;7,2;-7,7;30,2;1686
2022-04-07 01:00:00;9,8;98865;77;0,0059;0,0;6,4;228;11,0;-4,29;-4,77;0;0;0;34,1;37,5;40,0;40,3;7,9;7,9;7,6;7,2;-7,7;30,2;1652
2022-04-07 02:00:00;9,8;98768;79;0,006;0,19;6,3;221;10,2;-4,64;-4,22;0;0;0;34,0;36,4;40,0;40,3;7,9;7,9;7,6;7,2;-7,7;30,2;1636
2022-04-07 03:00:00;10,1;98648;76;0,0059;0,0;6,9;222;11,6;-5,08;-4,62;0;0;0;34,0;37,5;40,0;40,3;7,9;7,9;7,6;7,2;-7,7;30,2;1640
2022-04-07 04:00:00;9,8;98532;78;0,006;0,41;6,1;217;10,8;-4,82;-3,72;0;0;0;34,0;37,5;40,0;40,7;7,9;7,8;7,6;7,2;-7,7;30,2;1731
2022-04-07 05:00:00;9,4;98378;86;0,0064;0,43;6,5;208;12,1;-5,63;-3,21;10;0;0;34,2;37,5;40,0;40,3;7,8;7,8;7,6;7,3;-7,7;30,0;1726
2022-04-07 06:00:00;9,7;98220;83;0,0063;0,0;7,1;211;12,7;-5,98;-3,67;65;0;0;34,7;37,0;40,0;40,3;7,9;7,8;7,6;7,3;-7,7;30,0;1748
2022-04-07 07:00:00;9,8;98030;83;0,0064;0,64;7,6;202;13,4;-6,98;-2,92;58;0;0;34,9;37,6;40,1;40,3;7,9;7,8;7,6;7,3;-7,7;29,8;1801
2022-04-07 08:00:00;10,1;97872;87;0,0069;0,42;8,0;212;13,4;-6,71;-4,22;114;0;0;35,8;37,7;40,1;40,3;8,0;7,9;7,6;7,3;-7,7;29,9;1771
2022-04-07 09:00:00;8,4;97928;93;0,0065;2,01;7,8;274;12,6;0,35;-7,34;98;0;0;37,6;38,1;40,6;40,3;8,1;7,9;7,6;7,3;-7,7;29,8;1778
2022-04-07 10:00:00;10,6;97917;86;0,007;0,02;6,9;261;11,9;-0,92;-6,8;430;0;0;37,7;38,0;40,7;40,4;8,2;8,0;7,7;7,3;-7,7;29,8;1817
2022-04-07 11:00:00;12,0;97968;67;0,006;0,0;8,6;268;13,8;-0,19;-8,57;462;0;0;37,0;37,9;40,6;40,5;8,4;8,1;7,7;7,3;-7,7;29,8;1849
2022-04-07 12:00:00;10,8;98075;71;0,0059;0,53;10,5;280;18,0;1,78;-10,19;296;0;0;36,5;37,5;40,6;40,6;8,7;8,2;7,8;7,3;-7,7;29,6;1778
2022-04-07 13:00:00;10,5;98170;72;0,0058;0,0;10,1;284;15,8;2,49;-9,79;561;0;0;36,7;38,0;40,6;40,7;8,7;8,3;7,9;7,3;-7,7;30,0;1791
2022-04-07 14:00:00;10,3;98238;60;0,0048;0,05;10,6;280;18,2;1,99;-10,41;213;0;0;36,4;37,4;40,6;40,7;8,8;8,4;7,9;7,3;-7,7;29,8;1772
2022-04-07 15:00:00;7,9;98337;74;0,005;1,21;10,3;276;16,6;1,24;-10,15;69;0;0;36,9;38,1;40,7;40,7;8,8;8,5;8,0;7,3;-7,6;29,7;1775
2022-04-07 16:00:00;8,2;98382;70;0,0048;0,2;9,8;262;17,0;-1,24;-9,66;38;0;0;37,7;38,2;40,7;40,8;8,5;8,4;8,1;7,4;-7,6;29,6;1822
2022-04-07 17:00:00;9,1;98435;60;0,0044;0,0;9,0;260;14,9;-1,5;-8,85;55;0;0;37,2;38,6;40,7;41,0;8,3;8,3;8,0;7,4;-7,6;29,5;1728
2022-04-07 18:00:00;9,5;98522;60;0,0045;0,02;7,9;260;13,5;-1,19;-7,76;4;0;0;36,8;38,3;40,7;41,0;8,1;8,2;8,0;7,4;-7,6;29,6;1822
2022-04-07 19:00:00;9,4;98648;61;0,0045;0,61;9,4;259;16,8;-1,72;-9,21;0;0;0;36,5;37,6;40,7;41,0;7,9;8,1;7,9;7,4;-7,6;29,5;1682
2022-04-07 20:00:00;7,1;98830;77;0,0049;0,44;9,4;267;15,7;-0,36;-9,38;0;0;0;37,0;38,1;40,8;41,0;7,7;8,0;7,9;7,4;-7,6;29,7;1673
2022-04-07 21:00:00;7,4;98970;74;0,0048;0,02;7,7;267;12,3;-0,29;-7,62;0;0;0;37,0;37,1;40,8;41,0;7,6;7,9;7,8;7,4;-7,6;29,7;1671
2022-04-07 22:00:00;7,4;99120;73;0,0047;0,0;8,0;278;12,9;1,19;-7,87;0;0;0;36,7;37,6;40,8;41,0;7,4;7,7;7,7;7,4;-7,6;29,4;1683
2022-04-07 23:00:00;6,8;99255;75;0,0046;0,0;8,1;274;12,9;0,58;-8,09;0;0;0;36,5;37,6;40,8;41,1;7,3;7,6;7,7;7,4;-7,6;29,3;1678
2022-04-08 00:00:00;6,0;99365;78;0,0046;0,0;7,6;272;12,1;0,29;-7,54;0;0;0;36,3;37,5;40,8;41,1;7,2;7,5;7,6;7,5;-7,6;29,4;1554
2022-04-08 01:00:00;5,5;99453;81;0,0046;0,0;6,1;271;9,7;0,24;-6,1;0;0;0;36,1;37,5;40,8;41,1;7,0;7,4;7,5;7,5;-7,6;29,6;1669
2022-04-08 02:00:00;5,4;99512;82;0,0046;0,0;5,5;262;8,4;-0,69;-5,42;0;0;0;36,0;37,5;40,8;41,1;6,9;7,3;7,4;7,5;-7,6;29,7;1579
2022-04-08 03:00:00;4,9;99548;83;0,0045;0,0;4,8;260;7,8;-0,76;-4,73;0;0;0;35,9;38,0;40,8;41,0;6,8;7,2;7,4;7,5;-7,6;29,8;1585
2022-04-08 04:00:00;4,6;99595;84;0,0045;0,0;3,8;255;6,2;-0,94;-3,68;0;0;0;35,8;38,0;40,8;41,0;6,6;7,1;7,3;7,5;-7,6;29,7;1619
2022-04-08 05:00:00;4,5;99590;85;0,0045;0,0;3,2;254;5,0;-0,87;-3,06;36;0;0;35,7;37,5;40,7;41,1;6,5;7,0;7,2;7,5;-7,6;29,9;1529
2022-04-08 06:00:00;5,3;99560;86;0,0048;0,0;3,5;249;5,7;-1,22;-3,26;160;0;0;35,6;38,0;40,7;41,0;6,4;6,9;7,1;7,5;-7,6;29,8;1586
2022-04-08 07:00:00;5,9;99545;80;0,0047;0,0;3,5;252;6,1;-1,08;-3,32;186;0;0;35,5;38,0;40,7;41,0;6,4;6,8;7,1;7,4;-7,6;30,0;1548
2022-04-08 08:00:00;6,2;99538;77;0,0046;0,0;3,0;246;4,9;-1,22;-2,75;186;0;0;35,4;37,5;40,7;41,0;6,5;6,8;7,0;7,4;-7,6;30,0;1545
2022-04-08 09:00:00;6,5;99453;75;0,0045;0,0;2,6;228;4,4;-1,71;-1,96;255;0;0;35,3;37,5;40,7;41,0;6,7;6,8;7,0;7,4;-7,6;29,6;1698
2022-04-08 10:00:00;6,9;99420;68;0,0042;0,0;2,9;221;5,1;-2,22;-1,92;221;0;0;35,2;37,5;40,7;41,0;6,9;6,9;7,0;7,4;-7,6;29,5;1674
2022-04-08 11:00:00;7,2;99360;64;0,004;0,0;2,8;246;4,7;-1,1;-2,54;239;0;0;35,1;38,0;40,7;41,0;7,1;7,0;7,0;7,4;-7,6;29,3;1617
2022-04-08 12:00:00;7,3;99285;62;0,004;0,0;2,6;265;4,3;-0,12;-2,58;226;0;0;35,0;37,4;40,6;41,0;7,2;7,0;7,1;7,4;-7,6;29,5;1583
2022-04-08 13:00:00;7,4;99265;69;0,0044;0,0;2,5;273;4,6;0,17;-2,47;239;0;0;34,8;38,0;40,6;41,0;7,3;7,1;7,1;7,4;-7,6;29,0;1613
2022-04-08 14:00:00;7,8;99242;68;0,0045;0,0;2,7;284;4,6;0,66;-2,64;239;0;0;34,7;38,0;40,6;41,0;7,5;7,2;7,2;7,4;-7,6;29,3;1590